Weather History for Biarritz, France

Change the Weather History Date:

Sunday, October 6, 2013

  Actual Average Record
Temperature  
Mean Temperature 63 °F -  
Max Temperature 69 °F 65 °F 80 °F (2012)
Min Temperature 57 °F 51 °F 42 °F (1999)
Degree Days  
Heating Degree Days 2    
Growing Degree Days 13 (Base 50)    
Moisture  
Dew Point 57 °F    
Average Humidity 83    
Maximum Humidity 100    
Minimum Humidity 64    
Precipitation  
Precipitation 0.00 in - - ()
Sea Level Pressure  
Sea Level Pressure 30.29 in    
Wind  
Wind Speed 3 mph ()    
Max Wind Speed 10 mph    
Max Gust Speed -    
Visibility 5.8 miles    
Events Fog , Rain    
Averages and records for this station are not official NWS values.
T = Trace of Precipitation, MM = Missing Value Source: Averaged Metar Reports

Daily Weather History Graph

Daily Weather History Graph

Search for Another Location

Airport:

Trip Planner

Search our weather history database for the weather conditions in past years. The results will help you decide how hot, cold, wet, or windy it might be!

Date:

Astronomy

Oct. 06, 2013 Rise Set
Actual Time 8:09 AM CEST 7:38 PM CEST
Civil Twilight 7:40 AM CEST 8:06 PM CEST
Nautical Twilight 7:07 AM CEST 8:39 PM CEST
Astronomical Twilight 6:34 AM CEST 9:13 PM CEST
Moon 9:41 AM CEST (10/6) 8:23 PM CEST (10/6)
Length of Visible Light 12h 25m
Length of Day
11h 28m
New Moon, 2% of the Moon is Illuminated
Oct 6
New Moon
Oct 12
First Quarter
Oct 19
Full
Oct 27
Last Quarter
Nov 3
New

Hourly Weather History & Observations

Time (CEST) Temp. Dew Point Humidity Pressure Visibility Wind Dir Wind Speed Gust Speed Precip Events Conditions
12:00 AM 60.8 °F 59.0 °F 94% 30.30 in 6.2 mi SSE 1.2 mph - N/A   Scattered Clouds
12:30 AM 60.8 °F 59.0 °F 94% 30.30 in 6.2 mi Variable 2.3 mph - N/A   Partly Cloudy
1:00 AM 59.0 °F 57.2 °F 94% 30.30 in 6.2 mi Variable 2.3 mph - N/A   Partly Cloudy
1:30 AM 59.0 °F 57.2 °F 94% 30.30 in 0.7 mi SSE 3.5 mph - N/A Fog Fog
2:00 AM 57.2 °F 55.4 °F 94% 30.30 in 0.3 mi SSE 2.3 mph - N/A Fog Fog
2:30 AM 59.0 °F 59.0 °F 100% 30.30 in 6.2 mi South 2.3 mph - N/A   Unknown
3:00 AM 59.0 °F 57.2 °F 94% 30.30 in 6.2 mi SSE 2.3 mph - N/A   Unknown
3:30 AM 59.0 °F 57.2 °F 94% 30.30 in 6.2 mi South 2.3 mph - N/A   Mostly Cloudy
4:00 AM 59.0 °F 57.2 °F 94% 30.30 in 6.2 mi SSE 2.3 mph - N/A   Mostly Cloudy
4:30 AM 57.2 °F 55.4 °F 94% 30.30 in 0.6 mi SSE 4.6 mph - N/A Fog Fog
5:00 AM 57.2 °F 55.4 °F 94% 30.27 in 6.2 mi SSE 3.5 mph - N/A Fog Fog
5:30 AM 59.0 °F 57.2 °F 94% 30.30 in 6.2 mi South 2.3 mph - N/A   Mostly Cloudy
6:00 AM 59.0 °F 57.2 °F 94% 30.30 in 5.0 mi Variable 2.3 mph - N/A   Light Drizzle
6:36 AM 59.0 °F 57.2 °F 94% 30.30 in 3.7 mi Variable 2.3 mph - N/A Rain Light Rain
7:00 AM 59.0 °F 57.2 °F 94% 30.30 in 6.2 mi East 2.3 mph - N/A   Mostly Cloudy
7:30 AM 57.2 °F 55.4 °F 94% 30.30 in 6.2 mi Variable 2.3 mph - N/A   Mostly Cloudy
8:00 AM 57.2 °F 55.4 °F 94% 30.30 in 6.2 mi SE 3.5 mph - N/A Fog Mostly Cloudy
8:34 AM 57.2 °F 55.4 °F 94% 30.30 in 6.2 mi SE 3.5 mph - N/A Fog Shallow Fog
9:14 AM 59.0 °F 57.2 °F 94% 30.30 in 6.2 mi Calm Calm - N/A Fog Scattered Clouds
9:15 AM 59.0 °F 57.2 °F 94% 30.30 in 6.2 mi Calm Calm - N/A Fog Shallow Fog
9:30 AM 59.0 °F 57.2 °F 94% 30.30 in 6.2 mi Variable 1.2 mph - N/A Fog Shallow Fog
10:00 AM 60.8 °F 59.0 °F 94% 30.30 in 6.2 mi Variable 1.2 mph - N/A Fog Partly Cloudy
10:30 AM 62.6 °F 59.0 °F 88% 30.30 in 6.2 mi Calm Calm - N/A   Partly Cloudy
11:00 AM 64.4 °F 59.0 °F 83% 30.33 in 6.2 mi Variable 2.3 mph - N/A   Scattered Clouds
11:30 AM 64.4 °F 57.2 °F 77% 30.33 in 6.2 mi East 4.6 mph - N/A   Scattered Clouds
12:00 PM 64.4 °F 57.2 °F 77% 30.30 in 6.2 mi ENE 4.6 mph - N/A   Partly Cloudy
12:37 PM 66.2 °F 57.2 °F 73% 30.30 in 6.2 mi East 4.6 mph - N/A   Partly Cloudy
1:00 PM 66.2 °F 55.4 °F 68% 30.30 in 6.2 mi ENE 5.8 mph - N/A   Partly Cloudy
1:30 PM 68.0 °F 55.4 °F 64% 30.30 in 6.2 mi ENE 5.8 mph - N/A   Partly Cloudy
2:00 PM 69.8 °F 57.2 °F 64% 30.30 in 6.2 mi East 3.5 mph - N/A   Partly Cloudy
2:30 PM 66.2 °F 55.4 °F 68% 30.30 in 6.2 mi Variable 4.6 mph - N/A   Scattered Clouds
3:00 PM 66.2 °F 55.4 °F 68% 30.30 in 6.2 mi NNW 5.8 mph - N/A   Scattered Clouds
3:30 PM 68.0 °F 57.2 °F 68% 30.27 in 6.2 mi NNW 8.1 mph - N/A   Partly Cloudy
4:00 PM 68.0 °F 57.2 °F 68% 30.27 in 6.2 mi NNW 5.8 mph - N/A   Partly Cloudy
4:30 PM 68.0 °F 57.2 °F 68% 30.27 in 6.2 mi NNW 8.1 mph - N/A   Partly Cloudy
5:00 PM 66.2 °F 57.2 °F 73% 30.27 in 6.2 mi NW 9.2 mph - N/A   Partly Cloudy
5:37 PM 66.2 °F 57.2 °F 73% 30.27 in 6.2 mi NNW 10.4 mph - N/A   Scattered Clouds
6:00 PM 68.0 °F 57.2 °F 68% 30.27 in 6.2 mi North 8.1 mph - N/A   Scattered Clouds
6:30 PM 66.2 °F 57.2 °F 73% 30.27 in 6.2 mi North 8.1 mph - N/A   Overcast
7:00 PM 66.2 °F 57.2 °F 73% 30.27 in 6.2 mi NNW 6.9 mph - N/A   Mostly Cloudy
7:30 PM 66.2 °F 57.2 °F 73% 30.27 in 6.2 mi NNW 9.2 mph - N/A   Overcast
8:00 PM 64.4 °F 57.2 °F 77% 30.27 in 6.2 mi NNW 6.9 mph - N/A   Overcast
8:30 PM 64.4 °F 57.2 °F 77% 30.27 in 6.2 mi NNW 5.8 mph - N/A   Overcast
9:00 PM 64.4 °F 57.2 °F 77% 30.27 in 6.2 mi North 4.6 mph - N/A   Mostly Cloudy
9:30 PM 64.4 °F 55.4 °F 73% 30.27 in 6.2 mi NNE 3.5 mph - N/A   Partly Cloudy
10:00 PM 62.6 °F 55.4 °F 77% 30.27 in 6.2 mi NE 3.5 mph - N/A   Partly Cloudy
10:30 PM 62.6 °F 55.4 °F 77% 30.27 in 6.2 mi NE 3.5 mph - N/A   Partly Cloudy
11:00 PM 59.0 °F 55.4 °F 88% 30.27 in 6.2 mi East 3.5 mph - N/A   Partly Cloudy
11:30 PM 60.8 °F 55.4 °F 82% 30.27 in 6.2 mi Variable 3.5 mph - N/A   Scattered Clouds